Mount Pleasant, SC

11:01 AM EST on December 17, 2017 (GMT -0500)
Mount Pleasant

Weather History for KLRO - October, 2013

Change the Weather History Date:

Monday, October 7, 2013

  Actual Average (KCHS) Record (KCHS)
Temperature  
Mean Temperature 78 °F -  
Max Temperature 82 °F 79 °F 91 °F (1951)
Min Temperature 73 °F 59 °F 44 °F (1978)
Cooling Degree Days 12    
Growing Degree Days 28 (Base 50)    
Moisture  
Dew Point 74 °F    
Average Humidity 96    
Maximum Humidity 100    
Minimum Humidity 74    
Precipitation  
Precipitation 1.17 in - - ()
Sea Level Pressure  
Sea Level Pressure 29.87 in    
Wind  
Wind Speed 5 mph (SE)    
Max Wind Speed 13 mph    
Max Gust Speed 22 mph    
Visibility 6 miles    
Events Rain , Thunderstorm    
Averages and records for this station are not official NWS values.
T = Trace of Precipitation, MM = Missing Value Source: NWS Daily Summary

Daily Weather History Graph

Daily Weather History Graph

Search for Another Location

Airport or City:

Trip Planner

Search our weather history database for the weather conditions in past years. The results will help you decide how hot, cold, wet, or windy it might be!

Date:

Astronomy

Oct. 07, 2013 Rise Set
Actual Time 7:17 AM EDT 6:55 PM EDT
Civil Twilight 6:52 AM EDT 7:20 PM EDT
Nautical Twilight 6:24 AM EDT 7:48 PM EDT
Astronomical Twilight 5:55 AM EDT 8:17 PM EDT
Moon 9:56 AM EDT (10/7) 8:49 PM EDT (10/7)
Length of Visible Light 12h 27m
Length of Day
11h 37m
Waxing Crescent, 8% of the Moon is Illuminated
Oct 7
Waxing Crescent
Oct 11
First Quarter
Oct 18
Full
Oct 26
Last Quarter
Nov 3
New

Hourly Weather History & Observations

Time (EDT) Temp. Heat Index Dew Point Humidity Pressure Visibility Wind Dir Wind Speed Gust Speed Precip Events Conditions
12:15 AM 73.4 °F - 73.4 °F 100% 29.94 in 2.5 mi SSE 10.4 mph 16.1 mph 0.02 in Rain Heavy Rain
12:35 AM 73.4 °F - 73.4 °F 100% 29.93 in 5.0 mi Calm Calm - 0.15 in   Mostly Cloudy
12:55 AM 73.4 °F - 73.4 °F 100% 29.92 in 3.0 mi Calm Calm - 0.15 in   Heavy Drizzle
1:15 AM 73.4 °F - 73.4 °F 100% 29.92 in 2.5 mi SSW 4.6 mph - 0.02 in   Light Drizzle
1:35 AM 73.4 °F - 73.4 °F 100% 29.91 in 3.0 mi Calm Calm - 0.06 in   Scattered Clouds
1:55 AM 73.4 °F - 73.4 °F 100% 29.91 in 4.0 mi Calm Calm - 0.06 in   Scattered Clouds
2:15 AM 73.4 °F - 73.4 °F 100% 29.90 in 3.0 mi Calm Calm - N/A   Mostly Cloudy
2:35 AM 73.4 °F - 73.4 °F 100% 29.90 in 2.5 mi SE 4.6 mph - N/A   Scattered Clouds
2:55 AM 73.4 °F - 73.4 °F 100% 29.89 in 1.5 mi SE 5.8 mph - N/A   Mostly Cloudy
3:15 AM 75.2 °F - 75.2 °F 100% 29.88 in 4.0 mi SSE 6.9 mph - N/A   Mostly Cloudy
3:35 AM 75.2 °F - 75.2 °F 100% 29.88 in 6.0 mi SSE 8.1 mph - N/A   Mostly Cloudy
3:55 AM 75.2 °F - 75.2 °F 100% 29.87 in 7.0 mi SE 8.1 mph - N/A   Mostly Cloudy
4:15 AM 75.2 °F - 73.4 °F 94% 29.89 in 2.5 mi SSE 8.1 mph - 0.03 in Rain Heavy Rain
4:35 AM 73.4 °F - 73.4 °F 100% 29.87 in 2.5 mi SSE 6.9 mph - 0.22 in Rain Light Rain
4:55 AM 73.4 °F - 73.4 °F 100% 29.87 in 4.0 mi SSE 10.4 mph - 0.22 in Rain Light Rain
5:15 AM 73.4 °F - 73.4 °F 100% 29.87 in 7.0 mi SSE 8.1 mph - N/A Thunderstorm Scattered Clouds
5:35 AM 73.4 °F - 73.4 °F 100% 29.88 in 7.0 mi South 6.9 mph - N/A   Mostly Cloudy
5:55 AM 73.4 °F - 73.4 °F 100% 29.87 in 4.0 mi SSE 12.7 mph 21.9 mph 0.01 in Thunderstorm Mostly Cloudy
6:15 AM 73.4 °F - 73.4 °F 100% 29.87 in 5.0 mi SSE 5.8 mph - 0.01 in Rain , Thunderstorm Rain
6:35 AM 73.4 °F - 73.4 °F 100% 29.88 in 3.0 mi SE 6.9 mph - 0.08 in Thunderstorm Mostly Cloudy
6:55 AM 73.4 °F - 73.4 °F 100% 29.87 in 5.0 mi SSE 8.1 mph - 0.08 in   Scattered Clouds
7:15 AM 73.4 °F - 73.4 °F 100% 29.87 in 4.0 mi SSE 8.1 mph 16.1 mph N/A Rain , Thunderstorm Light Rain
7:35 AM 73.4 °F - 73.4 °F 100% 29.89 in 1.5 mi SSE 6.9 mph - 0.11 in Rain , Thunderstorm Heavy Rain
7:55 AM 73.4 °F - 73.4 °F 100% 29.89 in 1.5 mi SSE 8.1 mph 18.4 mph 0.20 in Rain , Thunderstorm Light Rain
8:15 AM 73.4 °F - 73.4 °F 100% 29.88 in 0.5 mi SSE 8.1 mph - 0.16 in Rain , Thunderstorm Heavy Rain
8:35 AM 73.4 °F - 73.4 °F 100% 29.88 in 5.0 mi South 6.9 mph 17.3 mph 0.17 in   Mostly Cloudy
8:55 AM 73.4 °F - 73.4 °F 100% 29.89 in 3.0 mi South 6.9 mph - 0.18 in Rain Light Rain
9:15 AM 73.4 °F - 73.4 °F 100% 29.89 in 1.2 mi South 6.9 mph - 0.03 in Rain Rain
9:35 AM 73.4 °F - 73.4 °F 100% 29.90 in 1.5 mi SSE 8.1 mph - 0.08 in Rain , Thunderstorm Rain
9:55 AM 75.2 °F - 75.2 °F 100% 29.90 in 2.5 mi SSE 4.6 mph - 0.11 in Thunderstorm Light Drizzle
10:15 AM 75.2 °F - 75.2 °F 100% 29.90 in 5.0 mi SE 6.9 mph - N/A Thunderstorm Mostly Cloudy
10:35 AM 73.4 °F - 73.4 °F 100% 29.90 in 5.0 mi SE 3.5 mph - N/A Thunderstorm Mostly Cloudy
10:55 AM 73.4 °F - 73.4 °F 100% 29.90 in 5.0 mi Calm Calm - N/A   Overcast
11:15 AM 75.2 °F - 73.4 °F 94% 29.90 in 5.0 mi SSE 3.5 mph - N/A Thunderstorm Mostly Cloudy
11:35 AM 73.4 °F - 73.4 °F 100% 29.88 in 0.8 mi SE 3.5 mph - 0.16 in Rain Light Rain
11:55 AM 75.2 °F - 73.4 °F 94% 29.88 in 10.0 mi ESE 3.5 mph - 0.16 in   Scattered Clouds
12:15 PM 77.0 °F - 75.2 °F 94% 29.87 in 10.0 mi East 3.5 mph - N/A   Scattered Clouds
12:35 PM 78.8 °F - 75.2 °F 89% 29.87 in 10.0 mi SSE 5.8 mph - N/A   Scattered Clouds
12:55 PM 77.0 °F - 75.2 °F 94% 29.87 in 10.0 mi East 4.6 mph - N/A   Mostly Cloudy
1:15 PM 75.2 °F - 73.4 °F 94% 29.87 in 8.0 mi ESE 3.5 mph - N/A   Overcast
1:35 PM 77.0 °F - 73.4 °F 89% 29.86 in 5.0 mi SSE 5.8 mph - N/A Rain Light Rain
1:55 PM 77.0 °F - 73.4 °F 89% 29.85 in 9.0 mi SE 4.6 mph - N/A   Clear
2:15 PM 78.8 °F - 73.4 °F 83% 29.84 in 10.0 mi South 8.1 mph - N/A   Clear
2:35 PM 80.6 °F 85.4 °F 73.4 °F 79% 29.82 in 10.0 mi Calm Calm - N/A   Scattered Clouds
2:55 PM 80.6 °F 85.4 °F 73.4 °F 79% 29.81 in 10.0 mi Calm Calm - N/A   Scattered Clouds
3:15 PM 82.4 °F 88.2 °F 73.4 °F 74% 29.81 in 10.0 mi Calm Calm - N/A   Mostly Cloudy
3:55 PM 80.6 °F 85.4 °F 73.4 °F 79% 29.81 in 10.0 mi Calm Calm - N/A   Partly Cloudy
4:15 PM 80.6 °F 85.4 °F 73.4 °F 79% 29.82 in 10.0 mi SSE 3.5 mph - N/A   Clear
4:35 PM 78.8 °F - 75.2 °F 89% 29.83 in 10.0 mi Calm Calm - N/A   Clear
4:55 PM 78.8 °F - 75.2 °F 89% 29.83 in 10.0 mi Calm Calm - N/A   Clear
5:15 PM 78.8 °F - 75.2 °F 89% 29.83 in 10.0 mi Calm Calm - N/A   Partly Cloudy
5:35 PM 78.8 °F - 75.2 °F 89% 29.82 in 10.0 mi Calm Calm - N/A   Partly Cloudy
5:55 PM 77.0 °F - 75.2 °F 94% 29.82 in 10.0 mi Calm Calm - N/A   Clear
6:15 PM 77.0 °F - 75.2 °F 94% 29.83 in 10.0 mi ESE 3.5 mph - N/A   Clear
6:35 PM 75.2 °F - 75.2 °F 100% 29.83 in 9.0 mi Calm Calm - N/A   Clear
6:55 PM 75.2 °F - 75.2 °F 100% 29.83 in 9.0 mi SSE 3.5 mph - N/A   Clear
7:15 PM 75.2 °F - 75.2 °F 100% 29.84 in 10.0 mi Calm Calm - N/A   Clear
7:35 PM 75.2 °F - 75.2 °F 100% 29.84 in 10.0 mi Calm Calm - N/A   Clear
7:55 PM 75.2 °F - 75.2 °F 100% 29.84 in 10.0 mi Calm Calm - N/A   Clear
8:15 PM 75.2 °F - 75.2 °F 100% 29.84 in 10.0 mi Calm Calm - N/A   Clear
8:35 PM 75.2 °F - 75.2 °F 100% 29.85 in 9.0 mi Calm Calm - N/A   Clear
8:55 PM 75.2 °F - 75.2 °F 100% 29.86 in 10.0 mi Calm Calm - N/A   Clear
9:15 PM 75.2 °F - 75.2 °F 100% 29.86 in 9.0 mi North 4.6 mph - N/A   Clear
9:35 PM 75.2 °F - 75.2 °F 100% 29.87 in 10.0 mi Calm Calm - N/A   Clear
9:55 PM 75.2 °F - 75.2 °F 100% 29.87 in 9.0 mi NNW 3.5 mph - N/A   Clear
10:15 PM 73.4 °F - 73.4 °F 100% 29.87 in 8.0 mi South 3.5 mph - N/A   Clear
10:35 PM 75.2 °F - 75.2 °F 100% 29.87 in 8.0 mi Calm Calm - N/A   Clear
10:55 PM 73.4 °F - 73.4 °F 100% 29.88 in 9.0 mi North 3.5 mph - N/A   Clear
11:15 PM 75.2 °F - 75.2 °F 100% 29.87 in 8.0 mi North 4.6 mph - N/A   Clear
11:35 PM 75.2 °F - 75.2 °F 100% 29.88 in 9.0 mi Calm Calm - N/A   Clear
11:55 PM 75.2 °F - 75.2 °F 100% 29.89 in 10.0 mi Calm Calm - N/A   Scattered Clouds